Wind_Speed
45 45 44 42 41 40 39 38 37 36 35 34 32 31 31 30 29 29 29 28 28 27 27 27 28 28 29 29 30 31 33 33 34 35 36 37 38 39 40 42 43 45 46
48 47 46 45 43 42 41 40 39 38 37 36 34 33 32 31 31 30 30 29 29 28 28 29 29 29 30 31 31 33 34 34 35 36 37 38 39 40 42 43 45 46 47
50 49 48 47 46 44 42 42 41 40 38 38 36 35 33 32 31 31 31 31 30 30 30 30 30 31 31 32 33 33 34 35 36 37 38 39 40 42 43 45 46 47 48
52 51 51 50 49 47 45 44 43 42 41 39 38 37 35 33 32 32 33 32 32 32 31 31 31 32 32 33 34 34 35 36 37 38 39 40 42 43 44 46 47 48 49
55 54 53 52 51 49 47 46 45 44 43 41 39 38 37 36 34 34 34 34 33 33 32 32 33 33 33 34 35 35 36 37 38 39 40 42 43 44 45 47 48 49 50
57 56 55 53 53 52 50 47 46 45 44 43 42 41 39 38 36 35 35 35 35 34 33 34 34 34 34 35 36 36 37 38 39 40 41 42 43 44 46 47 48 50 51
58 58 57 55 54 54 53 51 48 47 46 45 44 42 41 39 38 37 36 35 35 35 34 35 34 34 35 36 37 37 38 39 39 41 42 43 43 45 46 48 49 50 52
58 59 58 57 56 55 54 53 50 49 47 47 45 44 42 41 39 39 37 36 36 36 35 36 36 36 36 37 38 38 39 40 41 42 42 43 44 46 47 49 50 51 53
54 57 58 58 57 56 55 53 52 50 49 48 46 45 43 43 41 40 39 38 37 37 37 37 37 37 37 38 39 39 40 40 41 42 43 44 45 47 48 49 51 52 54
51 52 55 57 58 58 56 54 53 52 51 48 47 46 44 44 43 41 40 39 39 38 37 37 38 38 38 38 39 40 40 41 42 43 44 45 46 47 49 50 52 54 55
52 51 52 55 57 58 57 55 54 52 51 48 48 47 45 44 43 42 40 40 39 38 38 38 39 38 39 39 39 40 41 42 43 43 44 45 47 48 50 51 53 55 55
52 50 49 51 55 56 56 55 54 52 51 50 49 48 46 44 43 42 41 40 40 39 39 39 39 39 39 39 40 41 41 42 42 43 44 46 47 49 50 52 54 54 54
50 49 48 50 52 54 54 54 53 51 51 49 49 47 45 44 44 42 41 42 41 40 40 40 40 40 40 40 40 41 42 42 42 43 45 46 48 49 51 52 52 52 52
49 49 48 48 50 52 53 53 52 51 50 49 49 47 46 45 44 43 42 41 41 40 40 39 40 40 40 40 39 40 41 42 43 44 45 46 48 50 51 51 50 50 50
47 49 49 47 47 50 51 51 50 50 50 48 47 47 45 44 45 44 43 42 42 40 38 37 39 39 39 39 40 41 41 42 43 44 45 46 47 49 49 49 49 48 48
44 46 47 47 47 48 49 49 48 48 48 48 47 46 43 42 44 43 42 42 40 38 38 37 38 38 39 39 40 41 42 42 42 43 45 46 47 47 47 48 48 47 48
43 45 46 45 45 47 49 48 47 46 46 47 47 45 43 42 43 42 42 40 39 39 39 38 38 39 39 39 40 40 40 41 42 44 45 46 46 46 47 47 47 47 48
42 43 44 43 43 46 48 48 46 45 45 46 46 46 44 42 42 41 40 39 38 39 39 38 38 39 39 39 38 39 40 40 42 44 44 45 46 45 45 45 46 47 48
40 41 41 42 42 45 47 47 45 44 45 46 45 45 44 42 41 40 39 38 38 39 39 39 38 38 39 38 37 38 39 40 42 42 43 44 43 43 44 44 45 47 48
36 38 40 41 41 43 46 45 43 43 42 43 44 44 43 42 40 39 38 38 38 39 39 38 37 38 38 37 37 37 39 39 40 41 42 42 41 42 43 44 46 47 48
35 36 38 39 41 42 43 43 42 42 42 42 42 42 42 42 40 39 39 38 38 37 37 37 37 37 36 35 36 37 38 38 39 40 40 40 40 42 42 44 45 46 47
34 35 36 38 40 41 43 43 42 41 42 42 42 42 41 40 40 41 40 38 38 38 37 37 38 37 35 36 36 37 37 37 37 38 39 39 40 41 42 44 44 45 46
32 35 39 37 38 40 41 41 41 39 41 41 43 42 41 39 40 40 38 37 36 36 36 37 36 35 35 35 36 36 35 36 36 37 38 39 40 41 42 43 44 45 46
31 34 37 36 37 38 38 40 40 39 40 40 41 42 40 39 39 39 38 37 36 37 36 36 36 35 35 34 34 34 34 35 36 36 37 38 39 40 41 42 43 44 46
30 32 35 36 37 36 37 38 38 38 38 39 40 40 39 38 38 38 37 36 36 35 34 35 36 36 34 34 34 34 34 34 35 36 37 37 38 39 40 42 43 44 45
28 30 33 35 35 35 35 36 37 36 36 36 39 40 40 38 37 37 37 36 35 34 34 35 34 34 34 34 33 33 33 33 34 35 35 36 38 39 40 41 41 43 45
Wind_Direction
250 251 251 251 252 253 253 254 255 255 256 259 260 260 260 262 264 267 271 275 280 284 287 290 294 297 299 301 303 305 306 307 309 309 310 311 312 313 314 315 316 316 316
250 250 251 250 250 251 252 253 253 253 254 256 259 259 260 260 263 266 269 274 278 282 285 289 292 295 297 299 301 303 305 306 308 308 309 311 312 313 314 315 316 316 316
249 249 249 250 250 249 249 251 252 252 253 255 257 258 258 259 261 265 268 272 276 280 284 287 290 293 296 298 300 302 303 305 306 307 309 310 311 313 314 315 315 316 316
248 248 248 248 248 247 247 249 251 252 252 254 256 256 257 258 260 264 267 271 275 279 282 285 289 292 294 296 298 300 302 304 305 306 308 310 311 313 314 314 315 316 316
247 246 246 246 246 246 246 247 249 250 251 251 253 255 256 257 259 262 266 269 273 277 280 283 287 290 292 295 297 300 302 303 305 306 308 310 311 312 313 314 315 315 316
245 245 244 244 244 244 244 245 247 248 250 251 252 254 256 256 258 261 264 268 271 275 278 282 285 288 291 294 296 299 301 303 304 306 308 309 310 311 313 314 315 316 316
244 244 243 242 242 242 243 243 244 246 248 249 250 252 254 255 257 260 263 267 270 273 277 281 284 287 290 292 295 298 300 302 304 306 307 308 309 311 313 314 315 316 317
244 243 241 241 240 240 240 242 242 245 247 249 249 250 253 256 257 259 262 265 269 272 275 279 283 285 288 292 294 297 300 302 303 305 306 307 309 311 313 314 315 316 317
244 242 240 239 238 237 238 240 240 242 245 247 248 250 253 255 257 258 260 264 268 271 274 277 281 284 287 290 293 296 299 301 303 304 305 307 309 311 312 314 316 316 316
243 243 240 238 237 236 236 237 239 240 243 246 248 250 252 255 256 258 260 263 267 270 272 276 279 283 287 289 292 295 298 300 301 303 305 307 309 311 313 314 315 316 316
242 242 241 239 237 235 235 235 237 239 241 243 246 249 251 254 256 258 259 263 266 268 272 275 278 282 285 288 291 294 297 299 301 303 305 307 308 310 313 314 315 316 317
241 240 240 239 237 235 234 234 235 238 240 241 244 247 249 252 255 256 259 262 264 267 270 274 278 281 283 286 290 293 296 299 300 302 305 306 308 311 312 314 315 317 318
240 239 238 237 236 234 233 234 234 236 239 240 242 245 247 250 253 255 258 260 262 266 269 273 277 279 283 285 289 292 296 297 299 301 304 306 309 311 313 315 317 318 319
240 238 238 236 235 233 232 232 234 236 238 239 240 243 246 250 253 255 257 259 262 265 270 274 278 280 283 285 288 292 295 297 299 301 303 306 309 311 313 316 318 319 320
240 237 237 237 234 232 231 232 233 236 238 238 240 242 245 249 253 254 256 260 263 265 269 274 278 281 283 286 289 291 294 296 299 302 305 307 310 312 314 316 318 319 320
239 237 236 237 234 231 230 231 233 236 238 239 240 240 243 248 252 253 255 258 261 265 269 273 276 279 283 286 288 291 295 298 301 303 305 308 310 312 314 316 318 319 319
239 238 236 237 233 231 231 231 232 236 238 241 241 242 244 246 249 251 254 256 259 265 269 271 275 279 283 285 288 292 295 298 301 304 306 308 310 312 314 316 318 319 319
239 238 237 235 232 231 231 231 233 236 238 240 241 242 244 245 247 251 254 256 260 264 268 272 276 279 282 285 288 292 295 299 301 304 306 309 311 312 314 317 319 319 320
239 237 235 232 231 231 231 232 235 235 238 240 241 242 243 244 246 250 254 257 259 263 268 272 275 279 283 285 288 291 295 299 302 304 307 309 311 312 315 317 319 321 321
238 237 236 232 232 232 231 234 235 236 238 240 240 240 242 244 248 251 254 256 259 264 268 272 276 280 283 286 289 292 296 299 302 305 307 309 311 313 315 317 320 321 322
239 239 236 233 231 231 232 233 234 237 238 239 240 241 243 245 248 250 254 256 259 264 269 272 276 279 282 286 289 292 295 298 301 304 307 309 312 314 316 318 320 322 323
243 241 236 233 231 231 231 233 233 234 236 238 240 242 242 244 248 252 254 257 260 265 269 272 275 277 281 285 288 291 295 298 301 304 306 309 312 314 316 318 321 323 324
244 241 237 235 232 231 232 234 235 234 236 239 240 239 241 246 248 250 254 257 260 265 269 272 274 277 281 285 288 291 294 297 299 303 307 310 312 315 316 319 320 323 325
246 241 237 236 233 232 233 234 234 234 236 239 239 237 241 246 248 251 254 256 260 265 268 270 273 276 279 284 288 292 294 296 299 302 306 310 312 314 316 319 321 324 325
245 241 236 235 236 235 235 236 235 235 237 237 236 237 242 246 249 252 253 256 261 265 267 270 273 276 279 283 288 291 293 296 299 302 306 309 311 314 316 319 322 324 326
246 242 238 236 236 237 236 236 236 235 237 237 237 238 241 245 249 251 253 258 261 265 268 270 273 277 279 283 286 289 291 295 298 301 305 308 311 314 316 318 321 324 326
Height
5778 5781 5784 5787 5790 5793 5795 5797 5799 5801 5803 5805 5806 5808 5809 5810 5811 5812 5812 5812 5812 5812 5811 5810 5808 5807 5805 5803 5801 5798 5796 5793 5789 5786 5782 5778 5774 5770 5766 5761 5756 5750 5745
5768 5772 5775 5778 5781 5784 5786 5789 5791 5793 5796 5798 5799 5801 5802 5804 5805 5806 5806 5806 5806 5806 5805 5804 5803 5801 5799 5797 5795 5792 5790 5786 5783 5779 5776 5772 5767 5763 5758 5753 5748 5742 5736
5757 5761 5764 5768 5771 5774 5777 5780 5783 5785 5788 5790 5792 5794 5795 5797 5798 5799 5800 5800 5800 5800 5799 5798 5797 5795 5793 5791 5789 5786 5783 5780 5777 5773 5769 5765 5760 5756 5751 5745 5740 5734 5728
5745 5749 5753 5757 5761 5764 5768 5771 5774 5777 5780 5782 5784 5786 5788 5789 5791 5792 5793 5793 5793 5793 5793 5792 5790 5789 5787 5785 5782 5780 5777 5773 5770 5766 5762 5758 5753 5748 5743 5737 5731 5725 5719
5731 5736 5740 5745 5749 5753 5757 5761 5765 5768 5771 5773 5776 5778 5780 5782 5783 5785 5786 5786 5786 5786 5786 5785 5784 5782 5780 5778 5776 5773 5770 5766 5763 5759 5755 5750 5746 5740 5735 5729 5723 5716 5710
5716 5721 5727 5732 5737 5742 5746 5751 5755 5759 5762 5764 5767 5770 5772 5774 5776 5777 5778 5779 5779 5779 5779 5778 5777 5775 5773 5771 5769 5766 5763 5759 5756 5752 5748 5743 5738 5733 5727 5721 5714 5708 5700
5700 5706 5712 5718 5724 5729 5734 5739 5744 5748 5752 5754 5758 5761 5763 5765 5768 5769 5770 5771 5771 5772 5771 5771 5769 5768 5766 5764 5762 5759 5755 5752 5748 5744 5740 5735 5730 5725 5719 5712 5706 5699 5691
5684 5690 5697 5704 5710 5716 5721 5727 5732 5737 5741 5744 5748 5751 5754 5757 5759 5761 5762 5763 5764 5764 5764 5763 5762 5761 5759 5757 5754 5751 5748 5745 5741 5737 5732 5727 5722 5716 5710 5704 5697 5689 5682
5670 5675 5682 5689 5695 5702 5708 5715 5721 5726 5730 5734 5738 5742 5745 5748 5750 5752 5754 5755 5756 5756 5756 5755 5754 5753 5751 5749 5747 5744 5741 5737 5733 5729 5724 5719 5714 5708 5702 5695 5688 5680 5672
5656 5661 5667 5674 5681 5688 5695 5702 5708 5714 5719 5723 5727 5731 5735 5739 5741 5743 5745 5747 5747 5748 5747 5747 5746 5745 5743 5741 5739 5736 5733 5729 5725 5721 5716 5711 5705 5699 5693 5686 5678 5670 5662
5642 5648 5654 5659 5667 5674 5682 5689 5695 5701 5707 5712 5717 5721 5725 5729 5731 5734 5736 5738 5739 5739 5739 5739 5738 5737 5735 5733 5731 5728 5725 5721 5717 5713 5708 5703 5697 5691 5684 5677 5669 5661 5652
5629 5635 5640 5646 5653 5661 5668 5676 5683 5689 5696 5701 5706 5710 5715 5718 5722 5725 5727 5728 5730 5730 5730 5730 5730 5728 5727 5725 5723 5720 5717 5713 5709 5704 5699 5694 5688 5682 5675 5667 5659 5651 5642
5617 5623 5628 5634 5640 5648 5656 5664 5671 5677 5683 5690 5695 5700 5704 5708 5712 5715 5717 5718 5720 5721 5721 5722 5721 5719 5718 5716 5714 5712 5708 5705 5700 5696 5691 5685 5680 5673 5666 5658 5650 5641 5633
5606 5611 5616 5622 5629 5636 5644 5652 5659 5665 5672 5678 5684 5689 5694 5698 5701 5705 5707 5709 5711 5712 5713 5713 5712 5711 5710 5708 5706 5703 5700 5696 5692 5687 5682 5677 5671 5664 5657 5649 5641 5633 5625
5594 5599 5605 5612 5618 5625 5633 5640 5647 5654 5660 5667 5673 5678 5683 5688 5691 5695 5697 5700 5702 5703 5704 5704 5704 5703 5701 5699 5697 5695 5691 5688 5684 5679 5674 5668 5662 5655 5648 5640 5633 5625 5617
5583 5588 5594 5600 5607 5614 5622 5629 5636 5643 5649 5656 5662 5668 5672 5677 5681 5685 5688 5690 5692 5694 5695 5696 5695 5694 5692 5691 5689 5686 5683 5679 5675 5670 5665 5659 5653 5646 5639 5632 5624 5617 5609
5573 5578 5584 5590 5597 5604 5612 5619 5626 5632 5638 5645 5652 5657 5663 5667 5671 5675 5678 5680 5683 5684 5686 5686 5686 5685 5684 5682 5680 5678 5674 5671 5666 5661 5656 5651 5644 5638 5631 5624 5616 5609 5601
5564 5569 5574 5580 5587 5595 5602 5608 5615 5622 5628 5635 5642 5647 5652 5657 5662 5666 5668 5671 5673 5675 5676 5677 5677 5676 5675 5673 5671 5669 5666 5662 5658 5653 5648 5642 5636 5629 5623 5616 5609 5601 5593
5555 5560 5565 5572 5579 5586 5592 5599 5606 5613 5619 5626 5632 5637 5643 5648 5652 5656 5659 5662 5664 5666 5666 5667 5668 5667 5666 5664 5662 5660 5657 5653 5649 5644 5639 5633 5627 5621 5615 5608 5601 5593 5585
5548 5553 5557 5563 5570 5577 5584 5590 5597 5604 5610 5616 5622 5628 5633 5639 5643 5647 5650 5653 5655 5656 5658 5658 5658 5658 5657 5655 5653 5651 5648 5645 5641 5636 5630 5625 5619 5613 5607 5601 5593 5585 5577
5541 5545 5550 5555 5561 5568 5574 5581 5588 5594 5600 5607 5612 5618 5624 5629 5634 5637 5641 5644 5645 5647 5648 5649 5649 5649 5648 5646 5645 5642 5639 5636 5632 5627 5622 5617 5612 5606 5600 5592 5585 5577 5569
5534 5537 5542 5547 5554 5560 5566 5572 5578 5585 5591 5597 5603 5609 5614 5620 5624 5628 5632 5634 5636 5638 5639 5640 5640 5640 5639 5638 5636 5633 5631 5628 5624 5620 5615 5610 5604 5598 5592 5585 5577 5570 5561
5527 5531 5535 5540 5546 5552 5557 5563 5569 5576 5582 5588 5594 5600 5606 5611 5615 5618 5622 5625 5627 5628 5630 5631 5631 5631 5630 5629 5627 5625 5622 5618 5615 5611 5606 5602 5596 5591 5584 5577 5570 5562 5554
5520 5523 5528 5533 5539 5544 5550 5555 5560 5567 5573 5580 5586 5592 5597 5602 5605 5609 5612 5615 5618 5620 5621 5621 5622 5622 5620 5619 5617 5616 5613 5609 5606 5603 5599 5594 5589 5583 5577 5570 5563 5555 5547
5513 5516 5521 5526 5531 5536 5541 5547 5552 5558 5564 5571 5577 5583 5587 5592 5596 5599 5603 5606 5609 5610 5611 5612 5612 5612 5611 5610 5609 5607 5604 5601 5598 5595 5591 5587 5582 5576 5569 5563 5556 5548 5540
5506 5510 5514 5519 5524 5529 5534 5539 5545 5550 5557 5562 5568 5573 5578 5583 5587 5590 5593 5596 5599 5601 5602 5603 5603 5603 5602 5601 5600 5598 5596 5593 5590 5587 5584 5580 5575 5569 5563 5556 5549 5541 5533